Weather History for MMCU - October, 2012

Change the Weather History Date:

Wednesday, October 31, 2012

  Actual Average Record
Temperature  
Mean Temperature 66 °F -  
Max Temperature 81 °F 70 °F 86 °F (1997)
Min Temperature 51 °F 39 °F 32 °F (2007)
Cooling Degree Days 1    
Growing Degree Days 16 (Base 50)    
Moisture  
Dew Point 28 °F    
Average Humidity 22    
Maximum Humidity 54    
Minimum Humidity 10    
Precipitation  
Precipitation 0.00 in - - ()
Sea Level Pressure  
Sea Level Pressure 30.00 in    
Wind  
Wind Speed 4 mph ()    
Max Wind Speed 13 mph    
Max Gust Speed -    
Visibility 7.9 miles    
Events      
Averages and records for this station are not official NWS values.
T = Trace of Precipitation, MM = Missing Value Source: Averaged Metar Reports

Daily Weather History Graph

Daily Weather History Graph

Search for Another Location

Airport or City:

Trip Planner

Search our weather history database for the weather conditions in past years. The results will help you decide how hot, cold, wet, or windy it might be!

Date:

Astronomy

Oct. 31, 2012 Rise Set
Actual Time 6:15 AM MST 5:18 PM MST
Civil Twilight 5:51 AM MST 5:43 PM MST
Nautical Twilight 5:23 AM MST 6:11 PM MST
Astronomical Twilight 4:55 AM MST 6:38 PM MST
Moon 6:41 PM MST (10/31) 7:50 AM MST (10/31)
Length of Visible Light 11h 51m
Length of Day
11h 03m
Waning Gibbous, 97% of the Moon is Illuminated
Oct 31
Waning Gibbous
Nov 6
Last Quarter
Nov 13
New
Nov 20
First Quarter
Nov 28
Full

Hourly Weather History & Observations

Time (MST) Temp. Windchill Dew Point Humidity Pressure Visibility Wind Dir Wind Speed Gust Speed Precip Events Conditions
1:50 AM 53 °F - 30 °F 28% 29.87 in 1 mi Calm Calm - -   Partly Cloudy
4:50 AM 55 °F - 31 °F 28% 29.93 in 1 mi West 2.2 mph - -   Mostly Cloudy
5:40 AM 48.2 °F - 32.0 °F 54% 29.94 in 10.0 mi South 3.5 mph - N/A   Mostly Cloudy
6:40 AM 46.4 °F 41.9 °F 24.8 °F 43% 30.18 in 10.0 mi SSE 9.2 mph - N/A   Scattered Clouds
7:45 AM 64 °F - 35 °F 22% 29.99 in 6 mi West 2.2 mph - -   Scattered Clouds
7:45 AM 59.0 °F - 28.4 °F 31% 30.03 in 10.0 mi South 5.8 mph - N/A   Scattered Clouds
8:40 AM 66.2 °F - 28.4 °F 24% 30.21 in 10.0 mi Calm Calm - N/A   Scattered Clouds
9:40 AM 69.8 °F - 30.2 °F 23% 30.21 in 10.0 mi NW 3.5 mph - N/A   Partly Cloudy
10:45 AM 78 °F - 31 °F 10% 29.96 in 6 mi ENE 2.2 mph - -   Scattered Clouds
10:45 AM 75.2 °F - 28.4 °F 18% 30.01 in 10.0 mi NW 3.5 mph - N/A   Partly Cloudy
11:40 AM 80.6 °F - 23.0 °F 12% 30.16 in 10.0 mi NE 9.2 mph - N/A   Partly Cloudy
12:40 PM 80.6 °F - 24.8 °F 13% 30.13 in 10.0 mi East 12.7 mph - N/A   Partly Cloudy
1:40 PM 80.6 °F - 26.6 °F 14% 29.91 in 10.0 mi ENE 11.5 mph - N/A   Scattered Clouds
1:45 PM 80 °F - 36 °F 11% 29.82 in 6 mi 2.2 mph - -   Scattered Clouds
2:40 PM 82.4 °F - 26.6 °F 13% 30.08 in 10.0 mi East 6.9 mph - N/A   Scattered Clouds
3:40 PM 80.6 °F - 24.8 °F 13% 30.07 in 10.0 mi ESE 6.9 mph - N/A   Scattered Clouds
4:40 PM 77.0 °F - 26.6 °F 16% 29.89 in 10.0 mi East 6.9 mph - N/A   Scattered Clouds
4:45 PM 78 °F - 37 °F 14% 29.73 in 6 mi ENE 2.2 mph - -   Partly Cloudy
5:40 PM 66.2 °F - 23.0 °F 19% 30.09 in 10.0 mi ESE 8.1 mph - N/A   Scattered Clouds
6:40 PM 62.6 °F - 23.0 °F 22% 30.11 in 10.0 mi SE 5.8 mph - N/A   Clear
7:40 PM 60.8 °F - 28.4 °F 29% 29.95 in 10.0 mi West 5.8 mph - N/A   Partly Cloudy
7:48 PM 60 °F - 32 °F 23% 29.77 in 1 mi WSW 2.2 mph - -  
8:40 PM 53.6 °F - 23.0 °F 30% 30.14 in 10.0 mi South 9.2 mph - N/A   Scattered Clouds
9:40 PM 53.6 °F - 23.0 °F 30% 30.14 in 10.0 mi SSE 11.5 mph - N/A   Scattered Clouds
10:40 PM 62 °F - 32 °F 21% 29.80 in 1 mi NE 2.2 mph - -   Scattered Clouds